This demonstration page uses our WeatherBlox Daily Observations layout. Learn more.

Left ArrowRight Arrow

38.20091, -84.87328

Hourly Observations for April 4, 2020

Temp ( °F °C ) Dew Point ( °F °C ) Humidity (%) Winds ( mph kmh ) Pressure ( in mb ) Visibility ( mi km ) Precip ( " mm )
12:53 am 00:53 Clear 48 8.9 41 5 77 77 Calm 30.00 1016 10 16 0.00 0.00
1:53 am 01:53 Clear 46 7.8 40 4.4 79 79 Calm 29.99 1016 10 16 0.00 0.00
2:53 am 02:53 Clear 44 6.7 39 3.9 83 83 Calm 29.99 1016 10 16 0.00 0.00
3:53 am 03:53 Clear 43 6.1 39 3.9 86 86 Calm 29.99 1016 10 16 0.00 0.00
4:53 am 04:53 Clear 43 6.1 39 3.9 86 86 Calm 29.99 1016 10 16 0.00 0.00
5:53 am 05:53 Clear 42 5.6 38 3.3 85 85 Calm 30.01 1016 10 16 0.00 0.00
6:53 am 06:53 Cloudy 41 5 38 3.3 89 89 Calm 30.02 1017 10 16 0.00 0.00
7:53 am 07:53 Cloudy 44 6.7 40 4.4 85 85 Calm 30.04 1017 10 16 0.00 0.00
8:53 am 08:53 Cloudy 50 10 44 6.7 80 80 Calm 30.05 1018 10 16 0.00 0.00
9:53 am 09:53 Mostly Cloudy 52 11.1 46 7.8 80 80 Calm 30.06 1018 10 16 0.00 0.00
10:53 am 10:53 Partly Cloudy 59 15 48 8.9 67 67 Calm 30.07 1018 10 16 0.00 0.00
11:53 am 11:53 Sunny 65 18.3 46 7.8 51 51 ESE 5 7 30.05 1018 10 16 0.00 0.00
12:53 pm 12:53 Mostly Cloudy 70 21.1 42 5.6 37 37 SW 5 7 30.03 1017 10 16 0.00 0.00
1:53 pm 13:53 Mostly Cloudy 70 21.1 41 5 35 35 NW 3 6 30.01 1016 10 16 0.00 0.00
2:53 pm 14:53 Sunny 72 22.2 42 5.6 34 34 VRB 5 7 29.99 1016 10 16 0.00 0.00
3:53 pm 15:53 Sunny 73 22.8 42 5.6 33 33 S 5 7 29.96 1015 10 16 0.00 0.00
4:53 pm 16:53 undefined 73 22.8 43 6.1 34 34 SSW 3 6 29.95 1014 10 16 0.00 0.00
5:53 pm 17:53 undefined 73 22.8 43 6.1 34 34 Calm 29.95 1014 10 16 0.00 0.00
6:53 pm 18:53 undefined 72 22.2 43 6.1 35 35 W 7 11 29.96 1015 10 16 0.00 0.00
7:53 pm 19:53 undefined 70 21.1 44 6.7 39 39 WNW 3 6 29.97 1015 10 16 0.00 0.00
8:53 pm 20:53 undefined 66 18.9 49 9.4 54 54 Calm 29.97 1015 10 16 0.00 0.00
9:53 pm 21:53 undefined 67 19.4 45 7.2 45 45 WNW 6 9 29.98 1015 10 16 0.00 0.00
10:53 pm 22:53 undefined 63 17.2 50 10 63 63 NW 9 15 30.00 1016 10 16 0.00 0.00
11:53 pm 23:53 Clear 60 15.6 50 10 70 70 NNW 6 9 30.01 1016 10 16 0.00 0.00

Powered by AerisWeather